Regional Weather Roundup
Issued by NWS

Home | Current Version | Previous Version | Graphics & Text | Print | Product List | Glossary Off
Versions: 1 2 3 4 5 6 7 8 9 10 11 12 13 14 15 16 17 18 19 20 21 22 23 24 25 26 27 28 29 30 31 32 33 34 35 36 37 38 39 40 41 42 43 44 45 46 47 48 49 50

000
ASUS43 KTOP 090108
RWRKS

WEATHER ROUNDUP FOR KANSAS
NATIONAL WEATHER SERVICE GOODLAND KS
700 PM CST MON FEB 08 2016

NOTE:  "FAIR" INDICATES FEW OR NO CLOUDS BELOW 12,000 FEET WITH NO
SIGNIFICANT WEATHER AND/OR OBSTRUCTIONS TO VISIBILITY.

KSZ001>006-013>018-027>032-041>047-090200-
NORTHWEST KANSAS

CITY           SKY/WX    TMP DP  RH WIND       PRES   REMARKS
GOODLAND       CLEAR     31  25  78 NW8       30.27S
HAYS           CLEAR     36  14  41 NW13      30.26S WCI  27
HILL CITY      CLEAR     32  20  61 W8        30.27S
RUSSELL        CLEAR     33  21  61 W14       30.24S WCI  23
$$

KSZ061>065-074>080-084>089-090200-
SOUTHWEST KANSAS

CITY           SKY/WX    TMP DP  RH WIND       PRES   REMARKS
DODGE CITY     CLEAR     30  10  43 NW13      30.29F WCI  20
ELKHART          N/A     42  18  38 N9          N/A
GARDEN CITY    CLEAR     32  15  49 NW10      30.30F WCI  24
GREAT BEND     CLEAR     34  16  47 NW10      30.26F WCI  26
LIBERAL        CLOUDY    37  12  35 N9        30.33R
PRATT          CLEAR     32  12  43 NW14      30.27S WCI  22
$$

KSZ066>073-081>083-090>101-090200-
SOUTHEAST KANSAS

CITY           SKY/WX    TMP DP  RH WIND       PRES   REMARKS
CHANUTE        CLEAR     35  13  40 NW13G22   30.15S WCI  26
COFFEYVILLE    CLEAR     37  13  37 NW17      30.17S WCI  27
HUTCHINSON     CLEAR     36  15  42 NW12      30.23S WCI  28
MEDICINE LODGE   N/A     37  12  35 NW12      30.27R WCI  29
NEWTON         CLEAR     36  12  38 NW15      30.21S WCI  26
PARSONS        CLEAR     36  13  38 NW12      30.16S WCI  28
WICHITA INTL   PTCLDY    38  15  39 NW15      30.23R WCI  29
WICHITA JABRA  CLEAR     36  15  42 NW20G25   30.21R WCI  25
WICHITA MCCONL CLEAR     38  15  39 NW20G25   30.21  WCI  28
WINFIELD       CLEAR     38  14  37 NW16      30.23S WCI  29
$$

KSZ007>012-019>026-033>040-048>060-102>105-090200-
NORTHEAST KANSAS

CITY           SKY/WX    TMP DP  RH WIND       PRES   REMARKS
CONCORDIA      CLEAR     33  20  58 NW10      30.19S WCI  25
EMPORIA        CLEAR     34  15  46 NW13      30.15S WCI  25
LAWRENCE       CLEAR     30  14  51 NW13      30.13R WCI  20
MANHATTAN      CLEAR     35  17  47 NW7       30.17S
MARYSVILLE     PTCLDY    32  23  69 NW16      30.13S WCI  21
OLATHE IND     CLEAR     30  15  53 NW24G32   30.11S WCI  16
OLATHE EXE     MOCLDY    30  14  51 NW15G28   30.09S WCI  19
SALINA         CLEAR     35  16  45 W13       30.21F WCI  26
TOPEKA BILLARD CLEAR     33  14  45 NW15      30.14S WCI  23
TOPEKA FORBES  CLEAR     34  15  46 NW23G29   30.12S WCI  22
$$



USA.gov is the U.S. government's official web portal to all federal, state and local government web resources and services.